Location: Conflandey
(47.7287°N, 6.0456°E)
Time: 03:40:47
(UTC+00:00)

Cosmos 1844 - Pass Details

Date: 24 October 2021
Orbit: 822 x 868 km, 70.9° (Epoch: 05 December)

Event Time Altitude Azimuth Distance (km) Brightness Sun altitude
Rises 18:12:13 0° 333° (NNW) 3,463 7.3 -17.6°
Reaches altitude 10° 18:14:43 10° 336° (NNW) 2,520 6.5 -18.0°
Maximum altitude 18:20:31 70° 60° (ENE) 918 3.7 -19.0°
Enters shadow 18:24:08 23° 140° (SE) 1,730 4.9 -19.6°
